Flag for U.S.A. Weather past 2 weeks in Chesapeake, Virginia, U.S.A.

Now
63 °F

Clear.


Feels Like: 63 °F
Forecast: 60 / 69 °F
Wind: No wind

Location: Chesapeake Municipal Airport

Current Time: Sep 22, 2014 at 11:29:15 PM

Latest Report: Sep 22, 2014 at 10:55 PM


Visibility: 10 mi

Pressure: 30.15 "Hg

Humidity: 94%

Dew point: 61 °F

Location of ChesapeakeLocation

Historic Weather in Chesapeake — Graph

°F

Chesapeake temperature yesterday

Maximum temperature yesterday: 84 °F (at 3:15 PM)
Minimum temperature yesterday: 72 °F (at 12:15 AM)
Average temperature yesterday: 76 °F

Past Weeks' High & Low Weather Summary

 TemperatureHumidityPressure
High88 °F (Sep 11, 3:15 PM)100% (Sep 8, 9:55 AM)30.27 "Hg (Sep 8, 9:55 AM)
Low57 °F (Sep 18, 4:55 AM)37% (Sep 22, 11:55 AM)29.73 "Hg (Sep 21, 3:15 PM)
Average72 °F80%30.06 "Hg
* Reported Sep 7 10:15 PM — Sep 22 10:15 PM, Chesapeake, Weather by CustomWeather, © 2014

Note: Actual official high and low records may vary slightly from our data, if they occured in-between our weather recording intervals... More about our weather records

Advertising

Chesapeake weather history for previous 24 hours

 ConditionsComfort  
Time TempWeatherWind HumidityBarometerVisibility
10:15 PM
Sep 22
64 °FClear.No wind88%30.15 "Hg10 mi
9:55 PM64 °FClear.No wind88%30.14 "Hg10 mi
9:35 PM64 °FClear.No wind88%30.14 "Hg10 mi
9:15 PM64 °FClear.No wind88%30.13 "Hg10 mi
8:55 PM64 °FClear.No wind88%30.12 "Hg10 mi
8:35 PM64 °FClear.No wind88%30.11 "Hg10 mi
8:15 PM66 °FClear.No wind83%30.10 "Hg10 mi
7:55 PM66 °FSunny.No wind83%30.09 "Hg10 mi
7:35 PM70 °FSunny.No wind73%30.08 "Hg10 mi
7:15 PM70 °FSunny.No wind73%30.08 "Hg10 mi
6:55 PM72 °FSunny.No wind73%30.06 "Hg10 mi
6:35 PM77 °FSunny.No wind51%30.05 "Hg10 mi
6:15 PM79 °FSunny.No wind48%30.05 "Hg10 mi
5:55 PM79 °FSunny.5 mph45%30.04 "Hg10 mi
5:35 PM79 °FSunny.6 mph45%30.03 "Hg10 mi
5:15 PM79 °FSunny.No wind42%30.03 "Hg10 mi
4:55 PM81 °FScattered clouds.3 mph39%30.03 "Hg10 mi
4:35 PM81 °FSunny.6 mph42%30.03 "Hg10 mi
4:15 PM81 °FSunny.7 mph42%30.02 "Hg10 mi
3:55 PM81 °FSunny.3 mph39%30.02 "Hg10 mi
3:35 PM81 °FSunny.3 mph39%30.01 "Hg10 mi
3:15 PM81 °FSunny.No wind39%30.00 "Hg10 mi
2:55 PM81 °FSunny.5 mph39%30.00 "Hg10 mi
2:35 PM81 °FSunny.6 mph39%30.01 "Hg10 mi
2:15 PM81 °FSunny.6 mph39%30.00 "Hg10 mi
1:55 PM79 °FSunny.5 mph42%30.01 "Hg10 mi
1:15 PM79 °FSunny.3 mph39%30.02 "Hg10 mi
12:55 PM79 °FSunny.8 mph39%30.02 "Hg10 mi
12:35 PM79 °FSunny.5 mph39%30.02 "Hg10 mi
12:15 PM79 °FSunny.3 mph39%30.01 "Hg10 mi
11:55 AM79 °FSunny.9 mph37%30.01 "Hg10 mi
11:35 AM77 °FSunny.8 mph42%30.01 "Hg10 mi
11:15 AM77 °FSunny.8 mph39%30.02 "Hg10 mi
10:55 AM77 °FSunny.7 mph42%30.01 "Hg10 mi
10:35 AM75 °FSunny.7 mph44%30.01 "Hg10 mi
10:15 AM75 °FSunny.7 mph47%30.00 "Hg10 mi
9:55 AM75 °FSunny.8 mph47%30.00 "Hg10 mi
9:35 AM75 °FSunny.5 mph54%29.99 "Hg10 mi
9:15 AM75 °FSunny.8 mph50%29.99 "Hg10 mi
8:55 AM75 °FSunny.7 mph50%29.98 "Hg10 mi
8:35 AM75 °FSunny.8 mph54%29.97 "Hg10 mi
8:15 AM72 °FScattered clouds.3 mph83%29.96 "Hg10 mi
7:55 AM70 °FScattered clouds.No wind88%29.95 "Hg10 mi
7:35 AM70 °FPassing clouds.No wind88%29.95 "Hg10 mi
7:15 AM72 °FPassing clouds.No wind83%29.94 "Hg10 mi
6:55 AM72 °FPassing clouds.No wind83%29.92 "Hg10 mi
6:35 AM70 °FClear.3 mph88%29.92 "Hg10 mi
6:15 AM72 °FClear.No wind83%29.90 "Hg10 mi
5:55 AM72 °FPassing clouds.No wind83%29.89 "Hg10 mi
5:35 AM72 °FClear.No wind83%29.88 "Hg10 mi
5:15 AM72 °FClear.No wind83%29.87 "Hg10 mi
4:55 AM72 °FPassing clouds.No wind83%29.86 "Hg10 mi
4:35 AM73 °FPassing clouds.3 mph83%29.85 "Hg10 mi
4:15 AM73 °FOvercast.No wind83%29.85 "Hg10 mi
3:55 AM73 °FMostly cloudy.No wind83%29.84 "Hg10 mi
3:35 AM73 °FPassing clouds.3 mph83%29.83 "Hg10 mi
3:15 AM73 °FPassing clouds.3 mph83%29.83 "Hg10 mi
2:55 AM75 °FClear.6 mph74%29.82 "Hg10 mi
2:35 AM73 °FClear.5 mph83%29.82 "Hg10 mi
2:15 AM73 °FClear.3 mph83%29.82 "Hg10 mi
1:55 AM73 °FClear.5 mph83%29.82 "Hg10 mi
1:35 AM73 °FPassing clouds.5 mph78%29.82 "Hg10 mi
1:15 AM75 °FPassing clouds.5 mph74%29.81 "Hg10 mi
12:55 AM75 °FPassing clouds.6 mph74%29.81 "Hg10 mi
12:35 AM75 °FPassing clouds.7 mph74%29.80 "Hg10 mi
12:15 AM75 °FClear.7 mph74%29.80 "Hg10 mi
11:55 PM
Sep 21
75 °FClear.8 mph74%29.80 "Hg10 mi
11:35 PM75 °FClear.8 mph74%29.79 "Hg10 mi
11:15 PM75 °FClear.7 mph74%29.79 "Hg10 mi
Weather by CustomWeather, © 2014

See weather overviewHow to use our weather pages